EUTELSAT 10B

导读

EUTELSAT 10B由欧洲卫星运营商Eutelsat发射,于2022年11月23日顺利升空,定点于东经10°轨道位置。作为新一代高容量通信卫星,它接替上一代卫星服务,搭载Ku、C波段载荷,覆盖欧洲、非洲、中东及亚洲部分区域,可提供宽带连接、视频传输、数据通信等服务,增强了欧卫通网络的通信容量与可靠性,为跨区域互联提供坚实支撑。

Basic Information
目录编号:
54259
目录名称:
EUTELSAT 10B
国际标识:
2022-157A
轨道中心:
EARTH
卫星名称:
EUTELSAT 10B
卫星全名:
--
卫星状态:
在轨 (已飞行1392 天)
发射日期:
2022-11-23 UTC
国别 :
(EUTE)
星等 :
--
This satellite is enrolled in the Space Conjunction Data Service (SCDS) and the current flight risk assessment level is: No High Risk
Orbit Information
数据来源 国际轨道数据 AOE轨道数据
星历时间 2026-09-15T09:49:31+0800
21小时前
查看轨道信息
2026-09-13T05:00:00+0800
3天前
查看轨道信息
半长轴 42165.401km 42165.625km
偏心率 0.0001683 0.0001871
轨道倾角 0.057° 0.057°
近地点辐角 359.247° 2.959°
升交点赤经 101.593° 100.394°
平近点角 290.573° 213.525°
近地点 35780.167km 35779.598km
远地点 35794.361km 35795.378km
周期 1436.131分钟 1436.143分钟
每日圈数 1.002694 1.002686
Detailed Information
使用方式:
暂无
2D Orbit Map
3D Orbit Map
Orbit Altitude Analysis Chart
Orbit Inclination Analysis Chart
Orbit Comprehensive Analysis Chart
View Comprehensive Chart
Miss Distance Evolution Trend with All Objects Subscribe to Flight Safety Assessment
Collision Probability Evolution Trend with All Objects Subscribe to Flight Safety Assessment